Year,Month,Day,Hour,Minute,Value (Times are PST for temperature in C)
2018,10,21,00,00,6.50
2018,10,21,00,01,6.60
2018,10,21,00,02,6.60
2018,10,21,00,03,6.60
2018,10,21,00,04,6.60
2018,10,21,00,05,6.60
2018,10,21,00,06,6.70
2018,10,21,00,07,6.70
2018,10,21,00,08,6.70
2018,10,21,00,09,6.70
2018,10,21,00,10,6.70
2018,10,21,00,11,6.70
2018,10,21,00,12,6.70
2018,10,21,00,13,6.70
2018,10,21,00,14,6.60
2018,10,21,00,15,6.60
2018,10,21,00,16,6.60
2018,10,21,00,17,6.60
2018,10,21,00,18,6.60
2018,10,21,00,19,6.60
2018,10,21,00,20,6.60
2018,10,21,00,21,6.60
2018,10,21,00,22,6.50
2018,10,21,00,23,6.50
2018,10,21,00,24,6.40
2018,10,21,00,25,6.40
2018,10,21,00,26,6.30
2018,10,21,00,27,6.30
2018,10,21,00,28,6.30
2018,10,21,00,29,6.20
2018,10,21,00,30,6.20
2018,10,21,00,31,6.20
2018,10,21,00,32,6.10
2018,10,21,00,33,6.10
2018,10,21,00,34,6.10
2018,10,21,00,35,6.10
2018,10,21,00,36,6.00
2018,10,21,00,37,6.00
2018,10,21,00,38,5.90
2018,10,21,00,39,5.90
2018,10,21,00,40,5.90
2018,10,21,00,41,5.90
2018,10,21,00,42,5.90
2018,10,21,00,43,5.90
2018,10,21,00,44,5.90
2018,10,21,00,45,5.90
2018,10,21,00,46,5.90
2018,10,21,00,47,5.90
2018,10,21,00,48,5.90
2018,10,21,00,49,5.90
2018,10,21,00,50,5.90
2018,10,21,00,51,5.90
2018,10,21,00,52,5.90
2018,10,21,00,53,5.90
2018,10,21,00,54,5.90
2018,10,21,00,55,5.90
2018,10,21,00,56,5.90
2018,10,21,00,57,5.90
2018,10,21,00,58,5.90
2018,10,21,00,59,5.90
2018,10,21,01,00,5.90
2018,10,21,01,01,5.90
2018,10,21,01,02,5.90
2018,10,21,01,03,5.90
2018,10,21,01,04,5.90
2018,10,21,01,05,5.90
2018,10,21,01,06,5.80
2018,10,21,01,07,5.80
2018,10,21,01,08,5.80
2018,10,21,01,09,5.80
2018,10,21,01,10,5.80
2018,10,21,01,11,5.80
2018,10,21,01,12,5.80
2018,10,21,01,13,5.80
2018,10,21,01,14,5.80
2018,10,21,01,15,5.70
2018,10,21,01,16,5.70
2018,10,21,01,17,5.70
2018,10,21,01,18,5.70
2018,10,21,01,19,5.60
2018,10,21,01,20,5.60
2018,10,21,01,21,5.60
2018,10,21,01,22,5.60
2018,10,21,01,23,5.50
2018,10,21,01,24,5.50
2018,10,21,01,25,5.50
2018,10,21,01,26,5.50
2018,10,21,01,27,5.40
2018,10,21,01,28,5.40
2018,10,21,01,29,5.40
2018,10,21,01,30,5.40
2018,10,21,01,31,5.40
2018,10,21,01,32,5.30
2018,10,21,01,33,5.30
2018,10,21,01,34,5.30
2018,10,21,01,35,5.30
2018,10,21,01,36,5.30
2018,10,21,01,37,5.30
2018,10,21,01,38,5.30
2018,10,21,01,39,5.30
2018,10,21,01,40,5.20
2018,10,21,01,41,5.20
2018,10,21,01,42,5.20
2018,10,21,01,43,5.20
2018,10,21,01,44,5.20
2018,10,21,01,45,5.20
2018,10,21,01,46,5.20
2018,10,21,01,47,5.20
2018,10,21,01,48,5.20
2018,10,21,01,49,5.20
2018,10,21,01,50,5.20
2018,10,21,01,51,5.20
2018,10,21,01,52,5.20
2018,10,21,01,53,5.20
2018,10,21,01,54,5.20
2018,10,21,01,55,5.20
2018,10,21,01,56,5.20
2018,10,21,01,57,5.20
2018,10,21,01,58,5.20
2018,10,21,01,59,5.20
2018,10,21,02,00,5.20
2018,10,21,02,01,5.10
2018,10,21,02,02,5.10
2018,10,21,02,03,5.20
2018,10,21,02,04,5.10
2018,10,21,02,05,5.10
2018,10,21,02,06,5.10
2018,10,21,02,07,5.10
2018,10,21,02,08,5.10
2018,10,21,02,09,5.10
2018,10,21,02,10,5.10
2018,10,21,02,11,5.10
2018,10,21,02,12,5.10
2018,10,21,02,13,5.10
2018,10,21,02,14,5.10
2018,10,21,02,15,5.10
2018,10,21,02,16,5.10
2018,10,21,02,17,5.10
2018,10,21,02,18,5.20
2018,10,21,02,19,5.20
2018,10,21,02,20,5.20
2018,10,21,02,21,5.30
2018,10,21,02,22,5.30
2018,10,21,02,23,5.30
2018,10,21,02,24,5.30
2018,10,21,02,25,5.30
2018,10,21,02,26,5.30
2018,10,21,02,27,5.30
2018,10,21,02,28,5.40
2018,10,21,02,29,5.40
2018,10,21,02,30,5.40
2018,10,21,02,31,5.40
2018,10,21,02,32,5.40
2018,10,21,02,33,5.40
2018,10,21,02,34,5.40
2018,10,21,02,35,5.30
2018,10,21,02,36,5.30
2018,10,21,02,37,5.30
2018,10,21,02,38,5.30
2018,10,21,02,39,5.30
2018,10,21,02,40,5.20
2018,10,21,02,41,5.20
2018,10,21,02,42,5.20
2018,10,21,02,43,5.10
2018,10,21,02,44,5.10
2018,10,21,02,45,5.10
2018,10,21,02,46,5.00
2018,10,21,02,47,5.00
2018,10,21,02,48,5.00
2018,10,21,02,49,4.90
2018,10,21,02,50,4.90
2018,10,21,02,51,4.90
2018,10,21,02,52,4.90
2018,10,21,02,53,4.80
2018,10,21,02,54,4.80
2018,10,21,02,55,4.80
2018,10,21,02,56,4.80
2018,10,21,02,57,4.80
2018,10,21,02,58,4.80
2018,10,21,02,59,4.80
2018,10,21,03,00,4.70
2018,10,21,03,01,4.70
2018,10,21,03,02,4.70
2018,10,21,03,03,4.70
2018,10,21,03,04,4.70
2018,10,21,03,05,4.70
2018,10,21,03,06,4.70
2018,10,21,03,07,4.70
2018,10,21,03,08,4.70
2018,10,21,03,09,4.70
2018,10,21,03,10,4.70
2018,10,21,03,11,4.60
2018,10,21,03,12,4.60
2018,10,21,03,13,4.60
2018,10,21,03,14,4.60
2018,10,21,03,15,4.60
2018,10,21,03,16,4.60
2018,10,21,03,17,4.60
2018,10,21,03,18,4.60
2018,10,21,03,19,4.60
2018,10,21,03,20,4.60
2018,10,21,03,21,4.60
2018,10,21,03,22,4.60
2018,10,21,03,23,4.50
2018,10,21,03,24,4.50
2018,10,21,03,25,4.50
2018,10,21,03,26,4.50
2018,10,21,03,27,4.60
2018,10,21,03,28,4.60
2018,10,21,03,29,4.60
2018,10,21,03,30,4.60
2018,10,21,03,31,4.60
2018,10,21,03,32,4.60
2018,10,21,03,33,4.60
2018,10,21,03,34,4.60
2018,10,21,03,35,4.60
2018,10,21,03,36,4.60
2018,10,21,03,37,4.60
2018,10,21,03,38,4.60
2018,10,21,03,39,4.60
2018,10,21,03,40,4.60
2018,10,21,03,41,4.60
2018,10,21,03,42,4.60
2018,10,21,03,43,4.60
2018,10,21,03,44,4.50
2018,10,21,03,45,4.50
2018,10,21,03,46,4.50
2018,10,21,03,47,4.50
2018,10,21,03,48,4.50
2018,10,21,03,49,4.50
2018,10,21,03,50,4.50
2018,10,21,03,51,4.50
2018,10,21,03,52,4.50
2018,10,21,03,53,4.50
2018,10,21,03,54,4.50
2018,10,21,03,55,4.40
2018,10,21,03,56,4.40
2018,10,21,03,57,4.40
2018,10,21,03,58,4.40
2018,10,21,03,59,4.40
2018,10,21,04,00,4.30
2018,10,21,04,01,4.30
2018,10,21,04,02,4.30
2018,10,21,04,03,4.30
2018,10,21,04,04,4.30
2018,10,21,04,05,4.30
2018,10,21,04,06,4.20
2018,10,21,04,07,4.20
2018,10,21,04,08,4.20
2018,10,21,04,09,4.20
2018,10,21,04,10,4.20
2018,10,21,04,11,4.10
2018,10,21,04,12,4.10
2018,10,21,04,13,4.10
2018,10,21,04,14,4.10
2018,10,21,04,15,4.00
2018,10,21,04,16,4.00
2018,10,21,04,17,4.00
2018,10,21,04,18,4.00
2018,10,21,04,19,4.00
2018,10,21,04,20,4.00
2018,10,21,04,21,4.00
2018,10,21,04,22,4.00
2018,10,21,04,23,4.00
2018,10,21,04,24,3.90
2018,10,21,04,25,4.00
2018,10,21,04,26,4.00
2018,10,21,04,27,3.90
2018,10,21,04,28,4.00
2018,10,21,04,29,4.00
2018,10,21,04,30,3.90
2018,10,21,04,31,3.90
2018,10,21,04,32,3.90
2018,10,21,04,33,3.90
2018,10,21,04,34,3.90
2018,10,21,04,35,3.90
2018,10,21,04,36,3.90
2018,10,21,04,37,3.90
2018,10,21,04,38,3.90
2018,10,21,04,39,3.90
2018,10,21,04,40,3.90
2018,10,21,04,41,3.90
2018,10,21,04,42,3.80
2018,10,21,04,43,3.80
2018,10,21,04,44,3.80
2018,10,21,04,45,3.80
2018,10,21,04,46,3.80
2018,10,21,04,47,3.70
2018,10,21,04,48,3.70
2018,10,21,04,49,3.70
2018,10,21,04,50,3.70
2018,10,21,04,51,3.70
2018,10,21,04,52,3.70
2018,10,21,04,53,3.70
2018,10,21,04,54,3.70
2018,10,21,04,55,3.70
2018,10,21,04,56,3.70
2018,10,21,04,57,3.70
2018,10,21,04,58,3.70
2018,10,21,04,59,3.70
2018,10,21,05,00,3.70
2018,10,21,05,01,3.70
2018,10,21,05,02,3.70
2018,10,21,05,03,3.70
2018,10,21,05,04,3.70
2018,10,21,05,05,3.70
2018,10,21,05,06,3.70
2018,10,21,05,07,3.70
2018,10,21,05,08,3.70
2018,10,21,05,09,3.70
2018,10,21,05,10,3.70
2018,10,21,05,11,3.70
2018,10,21,05,12,3.70
2018,10,21,05,13,3.70
2018,10,21,05,14,3.70
2018,10,21,05,15,3.70
2018,10,21,05,16,3.70
2018,10,21,05,17,3.70
2018,10,21,05,18,3.70
2018,10,21,05,19,3.70
2018,10,21,05,20,3.70
2018,10,21,05,21,3.70
2018,10,21,05,22,3.70
2018,10,21,05,23,3.70
2018,10,21,05,24,3.60
2018,10,21,05,25,3.60
2018,10,21,05,26,3.60
2018,10,21,05,27,3.60
2018,10,21,05,28,3.60
2018,10,21,05,29,3.60
2018,10,21,05,30,3.60
2018,10,21,05,31,3.60
2018,10,21,05,32,3.60
2018,10,21,05,33,3.60
2018,10,21,05,34,3.60
2018,10,21,05,35,3.60
2018,10,21,05,36,3.60
2018,10,21,05,37,3.60
2018,10,21,05,38,3.60
2018,10,21,05,39,3.60
2018,10,21,05,40,3.60
2018,10,21,05,41,3.60
2018,10,21,05,42,3.60
2018,10,21,05,43,3.50
2018,10,21,05,44,3.50
2018,10,21,05,45,3.50
2018,10,21,05,46,3.50
2018,10,21,05,47,3.50
2018,10,21,05,48,3.50
2018,10,21,05,49,3.50
2018,10,21,05,50,3.40
2018,10,21,05,51,3.40
2018,10,21,05,52,3.40
2018,10,21,05,53,3.40
2018,10,21,05,54,3.40
2018,10,21,05,55,3.40
2018,10,21,05,56,3.40
2018,10,21,05,57,3.40
2018,10,21,05,58,3.40
2018,10,21,05,59,3.40
2018,10,21,06,00,3.50
2018,10,21,06,01,3.50
2018,10,21,06,02,3.60
2018,10,21,06,03,3.60
2018,10,21,06,04,3.60
2018,10,21,06,05,3.70
2018,10,21,06,06,3.70
2018,10,21,06,07,3.70
2018,10,21,06,08,3.70
2018,10,21,06,09,3.70
2018,10,21,06,10,3.70
2018,10,21,06,11,3.70
2018,10,21,06,12,3.70
2018,10,21,06,13,3.60
2018,10,21,06,14,3.60
2018,10,21,06,15,3.60
2018,10,21,06,16,3.60
2018,10,21,06,17,3.50
2018,10,21,06,18,3.50
2018,10,21,06,19,3.50
2018,10,21,06,20,3.40
2018,10,21,06,21,3.40
2018,10,21,06,22,3.40
2018,10,21,06,23,3.40
2018,10,21,06,24,3.30
2018,10,21,06,25,3.30
2018,10,21,06,26,3.30
2018,10,21,06,27,3.30
2018,10,21,06,28,3.30
2018,10,21,06,29,3.30
2018,10,21,06,30,3.30
2018,10,21,06,31,3.30
2018,10,21,06,32,3.30
2018,10,21,06,33,3.30
2018,10,21,06,34,3.30
2018,10,21,06,35,3.30
2018,10,21,06,36,3.40
2018,10,21,06,37,3.40
2018,10,21,06,38,3.40
2018,10,21,06,39,3.40
2018,10,21,06,40,3.40
2018,10,21,06,41,3.30
2018,10,21,06,42,3.30
2018,10,21,06,43,3.30
2018,10,21,06,44,3.30
2018,10,21,06,45,3.30
2018,10,21,06,46,3.30
2018,10,21,06,47,3.20
2018,10,21,06,48,3.20
2018,10,21,06,49,3.20
2018,10,21,06,50,3.20
2018,10,21,06,51,3.10
2018,10,21,06,52,3.10
2018,10,21,06,53,3.10
2018,10,21,06,54,3.10
2018,10,21,06,55,3.00
2018,10,21,06,56,3.00
2018,10,21,06,57,3.00
2018,10,21,06,58,3.00
2018,10,21,06,59,3.00
2018,10,21,07,00,3.00
2018,10,21,07,01,3.00
2018,10,21,07,02,3.00
2018,10,21,07,03,3.00
2018,10,21,07,04,3.00
2018,10,21,07,05,3.00
2018,10,21,07,06,2.90
2018,10,21,07,07,2.90
2018,10,21,07,08,2.90
2018,10,21,07,09,2.90
2018,10,21,07,10,2.90
2018,10,21,07,11,2.90
2018,10,21,07,12,2.90
2018,10,21,07,13,2.80
2018,10,21,07,14,2.80
2018,10,21,07,15,2.80
2018,10,21,07,16,2.80
2018,10,21,07,17,2.80
2018,10,21,07,18,2.80
2018,10,21,07,19,2.80
2018,10,21,07,20,2.80
2018,10,21,07,21,2.80
2018,10,21,07,22,2.80
2018,10,21,07,23,2.80
2018,10,21,07,24,2.80
2018,10,21,07,25,2.80
2018,10,21,07,26,2.80
2018,10,21,07,27,2.80
2018,10,21,07,28,2.80
2018,10,21,07,29,2.80
2018,10,21,07,30,2.80
2018,10,21,07,31,2.80
2018,10,21,07,32,2.80
2018,10,21,07,33,2.80
2018,10,21,07,34,2.80
2018,10,21,07,35,2.80
2018,10,21,07,36,2.80
2018,10,21,07,37,2.80
2018,10,21,07,38,2.90
2018,10,21,07,39,2.90
2018,10,21,07,40,2.90
2018,10,21,07,41,2.90
2018,10,21,07,42,2.90
2018,10,21,07,43,2.90
2018,10,21,07,44,2.90
2018,10,21,07,45,2.90
2018,10,21,07,46,2.90
2018,10,21,07,47,2.90
2018,10,21,07,48,2.90
2018,10,21,07,49,2.90
2018,10,21,07,50,2.90
2018,10,21,07,51,2.90
2018,10,21,07,52,2.90
2018,10,21,07,53,2.90
2018,10,21,07,54,2.90
2018,10,21,07,55,2.90
2018,10,21,07,56,2.90
2018,10,21,07,57,2.90
2018,10,21,07,58,2.90
2018,10,21,07,59,2.90
2018,10,21,08,00,2.90
2018,10,21,08,01,2.90
2018,10,21,08,02,2.90
2018,10,21,08,03,2.90
2018,10,21,08,04,2.90
2018,10,21,08,05,2.90
2018,10,21,08,06,2.90
2018,10,21,08,07,2.90
2018,10,21,08,08,2.90
2018,10,21,08,09,2.90
2018,10,21,08,10,2.90
2018,10,21,08,11,2.90
2018,10,21,08,12,2.90
2018,10,21,08,13,2.90
2018,10,21,08,14,3.00
2018,10,21,08,15,3.00
2018,10,21,08,16,3.00
2018,10,21,08,17,3.00
2018,10,21,08,18,3.10
2018,10,21,08,19,3.10
2018,10,21,08,20,3.10
2018,10,21,08,21,3.10
2018,10,21,08,22,3.10
2018,10,21,08,23,3.10
2018,10,21,08,24,3.20
2018,10,21,08,25,3.20
2018,10,21,08,26,3.20
2018,10,21,08,27,3.20
2018,10,21,08,28,3.20
2018,10,21,08,29,3.30
2018,10,21,08,30,3.30
2018,10,21,08,31,3.30
2018,10,21,08,32,3.30
2018,10,21,08,33,3.40
2018,10,21,08,34,3.40
2018,10,21,08,35,3.40
2018,10,21,08,36,3.40
2018,10,21,08,37,3.40
2018,10,21,08,38,3.40
2018,10,21,08,39,3.50
2018,10,21,08,40,3.50
2018,10,21,08,41,3.50
2018,10,21,08,42,3.60
2018,10,21,08,43,3.60
2018,10,21,08,44,3.60
2018,10,21,08,45,3.60
2018,10,21,08,46,3.70
2018,10,21,08,47,3.70
2018,10,21,08,48,3.70
2018,10,21,08,49,3.80
2018,10,21,08,50,3.90
2018,10,21,08,51,4.00
2018,10,21,08,52,4.10
2018,10,21,08,53,4.20
2018,10,21,08,54,4.30
2018,10,21,08,55,4.30
2018,10,21,08,56,4.30
2018,10,21,08,57,4.40
2018,10,21,08,58,4.40
2018,10,21,08,59,4.40
2018,10,21,09,00,4.50
2018,10,21,09,01,4.50
2018,10,21,09,02,4.60
2018,10,21,09,03,4.70
2018,10,21,09,04,4.70
2018,10,21,09,05,4.80
2018,10,21,09,06,4.80
2018,10,21,09,07,4.90
2018,10,21,09,08,4.90
2018,10,21,09,09,5.00
2018,10,21,09,10,5.00
2018,10,21,09,11,5.10
2018,10,21,09,12,5.10
2018,10,21,09,13,5.20
2018,10,21,09,14,5.20
2018,10,21,09,15,5.20
2018,10,21,09,16,5.30
2018,10,21,09,17,5.30
2018,10,21,09,18,5.40
2018,10,21,09,19,5.50
2018,10,21,09,20,5.50
2018,10,21,09,21,5.60
2018,10,21,09,22,5.70
2018,10,21,09,23,5.70
2018,10,21,09,24,5.80
2018,10,21,09,25,5.80
2018,10,21,09,26,5.90
2018,10,21,09,27,5.90
2018,10,21,09,28,6.00
2018,10,21,09,29,6.10
2018,10,21,09,30,6.10
2018,10,21,09,31,6.20
2018,10,21,09,32,6.20
2018,10,21,09,33,6.20
2018,10,21,09,34,6.20
2018,10,21,09,35,6.20
2018,10,21,09,36,6.20
2018,10,21,09,37,6.20
2018,10,21,09,38,6.20
2018,10,21,09,39,6.30
2018,10,21,09,40,6.30
2018,10,21,09,41,6.40
2018,10,21,09,42,6.50
2018,10,21,09,43,6.60
2018,10,21,09,44,6.60
2018,10,21,09,45,6.70
2018,10,21,09,46,6.70
2018,10,21,09,47,6.80
2018,10,21,09,48,6.80
2018,10,21,09,49,6.90
2018,10,21,09,50,6.90
2018,10,21,09,51,7.00
2018,10,21,09,52,7.00
2018,10,21,09,53,7.10
2018,10,21,09,54,7.10
2018,10,21,09,55,7.20
2018,10,21,09,56,7.20
2018,10,21,09,57,7.30
2018,10,21,09,58,7.30
2018,10,21,09,59,7.30
2018,10,21,10,00,7.40
2018,10,21,10,01,7.40
2018,10,21,10,02,7.50
2018,10,21,10,03,7.50
2018,10,21,10,04,7.60
2018,10,21,10,05,7.70
2018,10,21,10,06,7.80
2018,10,21,10,07,7.90
2018,10,21,10,08,8.00
2018,10,21,10,09,8.00
2018,10,21,10,10,8.10
2018,10,21,10,11,8.10
2018,10,21,10,12,8.20
2018,10,21,10,13,8.20
2018,10,21,10,14,8.30
2018,10,21,10,15,8.30
2018,10,21,10,16,8.30
2018,10,21,10,17,8.30
2018,10,21,10,18,8.40
2018,10,21,10,19,8.40
2018,10,21,10,20,8.50
2018,10,21,10,21,8.60
2018,10,21,10,22,8.60
2018,10,21,10,23,8.70
2018,10,21,10,24,8.80
2018,10,21,10,25,8.80
2018,10,21,10,26,8.80
2018,10,21,10,27,8.90
2018,10,21,10,28,8.90
2018,10,21,10,29,8.90
2018,10,21,10,30,9.00
2018,10,21,10,31,9.00
2018,10,21,10,32,9.10
2018,10,21,10,33,9.10
2018,10,21,10,34,9.10
2018,10,21,10,35,9.10
2018,10,21,10,36,9.20
2018,10,21,10,37,9.20
2018,10,21,10,38,9.20
2018,10,21,10,39,9.30
2018,10,21,10,40,9.30
2018,10,21,10,41,9.40
2018,10,21,10,42,9.50
2018,10,21,10,43,9.60
2018,10,21,10,44,9.60
2018,10,21,10,45,9.70
2018,10,21,10,46,9.70
2018,10,21,10,47,9.80
2018,10,21,10,48,9.80
2018,10,21,10,49,9.90
2018,10,21,10,50,9.90
2018,10,21,10,51,10.00
2018,10,21,10,52,10.10
2018,10,21,10,53,10.10
2018,10,21,10,54,10.20
2018,10,21,10,55,10.20
2018,10,21,10,56,10.30
2018,10,21,10,57,10.30
2018,10,21,10,58,10.40
2018,10,21,10,59,10.50
2018,10,21,11,00,10.60
2018,10,21,11,01,10.60
2018,10,21,11,02,10.60
2018,10,21,11,03,10.70
2018,10,21,11,04,10.70
2018,10,21,11,05,10.70
2018,10,21,11,06,10.80
2018,10,21,11,07,10.90
2018,10,21,11,08,11.00
2018,10,21,11,09,11.10
2018,10,21,11,10,11.20
2018,10,21,11,11,11.30
2018,10,21,11,12,11.30
2018,10,21,11,13,11.40
2018,10,21,11,14,11.40
2018,10,21,11,15,11.50
2018,10,21,11,16,11.50
2018,10,21,11,17,11.60
2018,10,21,11,18,11.60
2018,10,21,11,19,11.70
2018,10,21,11,20,11.70
2018,10,21,11,21,11.70
2018,10,21,11,22,11.80
2018,10,21,11,23,11.80
2018,10,21,11,24,11.90
2018,10,21,11,25,11.90
2018,10,21,11,26,12.00
2018,10,21,11,27,12.00
2018,10,21,11,28,12.10
2018,10,21,11,29,12.10
2018,10,21,11,30,12.20
2018,10,21,11,31,12.20
2018,10,21,11,32,12.20
2018,10,21,11,33,12.30
2018,10,21,11,34,12.30
2018,10,21,11,35,12.30
2018,10,21,11,36,12.40
2018,10,21,11,37,12.50
2018,10,21,11,38,12.50
2018,10,21,11,39,12.70
2018,10,21,11,40,12.70
2018,10,21,11,41,12.80
2018,10,21,11,42,12.90
2018,10,21,11,43,13.00
2018,10,21,11,44,13.10
2018,10,21,11,45,13.10
2018,10,21,11,46,13.20
2018,10,21,11,47,13.20
2018,10,21,11,48,13.20
2018,10,21,11,49,13.30
2018,10,21,11,50,13.30
2018,10,21,11,51,13.40
2018,10,21,11,52,13.40
2018,10,21,11,53,13.50
2018,10,21,11,54,13.60
2018,10,21,11,55,13.60
2018,10,21,11,56,13.70
2018,10,21,11,57,13.70
2018,10,21,11,58,13.70
2018,10,21,11,59,13.70
2018,10,21,12,00,13.70
2018,10,21,12,01,13.70
2018,10,21,12,02,13.80
2018,10,21,12,03,13.80
2018,10,21,12,04,13.90
2018,10,21,12,05,14.00
2018,10,21,12,06,14.10
2018,10,21,12,07,14.20
2018,10,21,12,08,14.40
2018,10,21,12,09,14.50
2018,10,21,12,10,14.70
2018,10,21,12,11,14.80
2018,10,21,12,12,14.90
2018,10,21,12,13,15.00
2018,10,21,12,14,15.10
2018,10,21,12,15,15.20
2018,10,21,12,16,15.30
2018,10,21,12,17,15.40
2018,10,21,12,18,15.40
2018,10,21,12,19,15.50
2018,10,21,12,20,15.60
2018,10,21,12,21,15.70
2018,10,21,12,22,15.70
2018,10,21,12,23,15.80
2018,10,21,12,24,15.80
2018,10,21,12,25,15.90
2018,10,21,12,26,15.90
2018,10,21,12,27,16.00
2018,10,21,12,28,16.00
2018,10,21,12,29,16.10
2018,10,21,12,30,16.10
2018,10,21,12,31,16.20
2018,10,21,12,32,16.30
2018,10,21,12,33,16.40
2018,10,21,12,34,16.40
2018,10,21,12,35,16.50
2018,10,21,12,36,16.50
2018,10,21,12,37,16.60
2018,10,21,12,38,16.70
2018,10,21,12,39,16.70
2018,10,21,12,40,16.80
2018,10,21,12,41,16.80
2018,10,21,12,42,16.90
2018,10,21,12,43,17.00
2018,10,21,12,44,17.00
2018,10,21,12,45,17.10
2018,10,21,12,46,17.10
2018,10,21,12,47,17.00
2018,10,21,12,48,16.90
2018,10,21,12,49,16.90
2018,10,21,12,50,16.90
2018,10,21,12,51,16.90
2018,10,21,12,52,16.90
2018,10,21,12,53,16.90
2018,10,21,12,54,16.90
2018,10,21,12,55,16.90
2018,10,21,12,56,17.00
2018,10,21,12,57,17.10
2018,10,21,12,58,17.20
2018,10,21,12,59,17.20
2018,10,21,13,00,17.30
2018,10,21,13,01,17.30
2018,10,21,13,02,17.30
2018,10,21,13,03,17.40
2018,10,21,13,04,17.40
2018,10,21,13,05,17.50
2018,10,21,13,06,17.50
2018,10,21,13,07,17.60
2018,10,21,13,08,17.60
2018,10,21,13,09,17.70
2018,10,21,13,10,17.70
2018,10,21,13,11,17.70
2018,10,21,13,12,17.60
2018,10,21,13,13,17.50
2018,10,21,13,14,17.40
2018,10,21,13,15,17.40
2018,10,21,13,16,17.30
2018,10,21,13,17,17.30
2018,10,21,13,18,17.40
2018,10,21,13,19,17.50
2018,10,21,13,20,17.60
2018,10,21,13,21,17.70
2018,10,21,13,22,17.80
2018,10,21,13,23,17.90
2018,10,21,13,24,17.90
2018,10,21,13,25,18.00
2018,10,21,13,26,18.00
2018,10,21,13,27,18.10
2018,10,21,13,28,18.10
2018,10,21,13,29,18.10
2018,10,21,13,30,18.10
2018,10,21,13,31,18.20
2018,10,21,13,32,18.20
2018,10,21,13,33,18.30
2018,10,21,13,34,18.30
2018,10,21,13,35,18.40
2018,10,21,13,36,18.40
2018,10,21,13,37,18.40
2018,10,21,13,38,18.50
2018,10,21,13,39,18.50
2018,10,21,13,40,18.50
2018,10,21,13,41,18.50
2018,10,21,13,42,18.50
2018,10,21,13,43,18.60
2018,10,21,13,44,18.60
2018,10,21,13,45,18.70
2018,10,21,13,46,18.80
2018,10,21,13,47,18.90
2018,10,21,13,48,19.00
2018,10,21,13,49,19.00
2018,10,21,13,50,19.00
2018,10,21,13,51,19.10
2018,10,21,13,52,19.10
2018,10,21,13,53,19.10
2018,10,21,13,54,19.10
2018,10,21,13,55,19.10
2018,10,21,13,56,19.10
2018,10,21,13,57,19.20
2018,10,21,13,58,19.20
2018,10,21,13,59,19.10
2018,10,21,14,00,19.10
2018,10,21,14,01,19.10
2018,10,21,14,02,19.10
2018,10,21,14,03,19.00
2018,10,21,14,04,19.00
2018,10,21,14,05,19.00
2018,10,21,14,06,18.90
2018,10,21,14,07,18.90
2018,10,21,14,08,18.80
2018,10,21,14,09,18.70
2018,10,21,14,10,18.60
2018,10,21,14,11,18.60
2018,10,21,14,12,18.60
2018,10,21,14,13,18.60
2018,10,21,14,14,18.60
2018,10,21,14,15,18.60
2018,10,21,14,16,18.60
2018,10,21,14,17,18.50
2018,10,21,14,18,18.50
2018,10,21,14,19,18.50
2018,10,21,14,20,18.50
2018,10,21,14,21,18.60
2018,10,21,14,22,18.70
2018,10,21,14,23,18.70
2018,10,21,14,24,18.80
2018,10,21,14,25,18.80
2018,10,21,14,26,18.80
2018,10,21,14,27,18.80
2018,10,21,14,28,18.80
2018,10,21,14,29,18.90
2018,10,21,14,30,18.90
2018,10,21,14,31,18.90
2018,10,21,14,32,18.90
2018,10,21,14,33,18.90
2018,10,21,14,34,19.00
2018,10,21,14,35,19.00
2018,10,21,14,36,19.10
2018,10,21,14,37,19.10
2018,10,21,14,38,19.10
2018,10,21,14,39,19.20
2018,10,21,14,40,19.20
2018,10,21,14,41,19.20
2018,10,21,14,42,19.20
2018,10,21,14,43,19.20
2018,10,21,14,44,19.20
2018,10,21,14,45,19.20
2018,10,21,14,46,19.20
2018,10,21,14,47,19.20
2018,10,21,14,48,19.20
2018,10,21,14,49,19.20
2018,10,21,14,50,19.30
2018,10,21,14,51,19.30
2018,10,21,14,52,19.30
2018,10,21,14,53,19.30
2018,10,21,14,54,19.20
2018,10,21,14,55,19.20
2018,10,21,14,56,19.20
2018,10,21,14,57,19.20
2018,10,21,14,58,19.10
2018,10,21,14,59,19.10
2018,10,21,15,00,19.10
2018,10,21,15,01,19.20
2018,10,21,15,02,19.20
2018,10,21,15,03,19.20
2018,10,21,15,04,19.20
2018,10,21,15,05,19.20
2018,10,21,15,06,19.20
2018,10,21,15,07,19.30
2018,10,21,15,08,19.20
2018,10,21,15,09,19.20
2018,10,21,15,10,19.30
2018,10,21,15,11,19.30
2018,10,21,15,12,19.30
2018,10,21,15,13,19.30
2018,10,21,15,14,19.40
2018,10,21,15,15,19.40
2018,10,21,15,16,19.40
2018,10,21,15,17,19.50
2018,10,21,15,18,19.50
2018,10,21,15,19,19.60
2018,10,21,15,20,19.60
2018,10,21,15,21,19.60
2018,10,21,15,22,19.60
2018,10,21,15,23,19.50
2018,10,21,15,24,19.50
2018,10,21,15,25,19.50
2018,10,21,15,26,19.50
2018,10,21,15,27,19.50
2018,10,21,15,28,19.50
2018,10,21,15,29,19.50
2018,10,21,15,30,19.50
2018,10,21,15,31,19.40
2018,10,21,15,32,19.40
2018,10,21,15,33,19.50
2018,10,21,15,34,19.50
2018,10,21,15,35,19.60
2018,10,21,15,36,19.60
2018,10,21,15,37,19.70
2018,10,21,15,38,19.70
2018,10,21,15,39,19.70
2018,10,21,15,40,19.70
2018,10,21,15,41,19.70
2018,10,21,15,42,19.80
2018,10,21,15,43,19.80
2018,10,21,15,44,19.80
2018,10,21,15,45,19.90
2018,10,21,15,46,19.90
2018,10,21,15,47,19.90
2018,10,21,15,48,19.90
2018,10,21,15,49,20.00
2018,10,21,15,50,20.10
2018,10,21,15,51,20.10
2018,10,21,15,52,20.20
2018,10,21,15,53,20.30
2018,10,21,15,54,20.30
2018,10,21,15,55,20.40
2018,10,21,15,56,20.40
2018,10,21,15,57,20.50
2018,10,21,15,58,20.60
2018,10,21,15,59,20.70
2018,10,21,16,00,20.70
2018,10,21,16,01,20.80
2018,10,21,16,02,20.90
2018,10,21,16,03,21.00
2018,10,21,16,04,21.10
2018,10,21,16,05,21.10
2018,10,21,16,06,21.20
2018,10,21,16,07,21.20
2018,10,21,16,08,21.20
2018,10,21,16,09,21.30
2018,10,21,16,10,21.30
2018,10,21,16,11,21.20
2018,10,21,16,12,21.10
2018,10,21,16,13,21.00
2018,10,21,16,14,20.90
2018,10,21,16,15,20.80
2018,10,21,16,16,20.70
2018,10,21,16,17,20.60
2018,10,21,16,18,20.50
2018,10,21,16,19,20.50
2018,10,21,16,20,20.40
2018,10,21,16,21,20.40
2018,10,21,16,22,20.50
2018,10,21,16,23,20.50
2018,10,21,16,24,20.60
2018,10,21,16,25,20.60
2018,10,21,16,26,20.70
2018,10,21,16,27,20.70
2018,10,21,16,28,20.80
2018,10,21,16,29,20.80
2018,10,21,16,30,20.80
2018,10,21,16,31,20.70
2018,10,21,16,32,20.70
2018,10,21,16,33,20.70
2018,10,21,16,34,20.70
2018,10,21,16,35,20.70
2018,10,21,16,36,20.70
2018,10,21,16,37,20.70
2018,10,21,16,38,20.60
2018,10,21,16,39,20.60
2018,10,21,16,40,20.60
2018,10,21,16,41,20.60
2018,10,21,16,42,20.60
2018,10,21,16,43,20.60
2018,10,21,16,44,20.60
2018,10,21,16,45,20.60
2018,10,21,16,46,20.60
2018,10,21,16,47,20.60
2018,10,21,16,48,20.60
2018,10,21,16,49,20.70
2018,10,21,16,50,20.60
2018,10,21,16,51,20.60
2018,10,21,16,52,20.60
2018,10,21,16,53,20.60
2018,10,21,16,54,20.60
2018,10,21,16,55,20.70
2018,10,21,16,56,20.70
2018,10,21,16,57,20.70
2018,10,21,16,58,20.70
2018,10,21,16,59,20.70
2018,10,21,17,00,20.60
2018,10,21,17,01,20.60
2018,10,21,17,02,20.60
2018,10,21,17,03,20.60
2018,10,21,17,04,20.60
2018,10,21,17,05,20.60
2018,10,21,17,06,20.70
2018,10,21,17,07,20.60
2018,10,21,17,08,20.50
2018,10,21,17,09,20.20
2018,10,21,17,10,20.00
2018,10,21,17,11,19.70
2018,10,21,17,12,19.50
2018,10,21,17,13,19.30
2018,10,21,17,14,19.10
2018,10,21,17,15,18.90
2018,10,21,17,16,18.70
2018,10,21,17,17,18.50
2018,10,21,17,18,18.40
2018,10,21,17,19,18.20
2018,10,21,17,20,18.00
2018,10,21,17,21,17.90
2018,10,21,17,22,17.70
2018,10,21,17,23,17.60
2018,10,21,17,24,17.50
2018,10,21,17,25,17.50
2018,10,21,17,26,17.40
2018,10,21,17,27,17.30
2018,10,21,17,28,17.20
2018,10,21,17,29,17.20
2018,10,21,17,30,17.10
2018,10,21,17,31,17.10
2018,10,21,17,32,17.00
2018,10,21,17,33,17.00
2018,10,21,17,34,16.90
2018,10,21,17,35,16.90
2018,10,21,17,36,16.80
2018,10,21,17,37,16.70
2018,10,21,17,38,16.70
2018,10,21,17,39,16.60
2018,10,21,17,40,16.60
2018,10,21,17,41,16.60
2018,10,21,17,42,16.50
2018,10,21,17,43,16.50
2018,10,21,17,44,16.40
2018,10,21,17,45,16.40
2018,10,21,17,46,16.30
2018,10,21,17,47,16.30